Location: ??????
(56.0120°N, 39.1740°E)
Time: 07:51:48
(UTC+00:00)

Cosmos 1371 Rocket - Pass Details

Date: 14 April 2026
Orbit: 749 x 786 km, 74.0° (Epoch: 14 May)

Event Time Altitude Azimuth Distance (km) Brightness Sun altitude
Exits shadow 22:18:25 62° 183° (S) 868 3.9 -23.3°
Maximum altitude 22:19:17 79° 115° (ESE) 792 3.9 -23.3°
Drops below altitude 10° 22:24:35 10° 30° (NNE) 2,336 7.5 -23.1°
Sets 22:27:00 0° 29° (NNE) 3,273 8.6 -23.0°
